Location: Barcelona
(41.3830°N, 2.1830°E)
Time: 22:02:35
(UTC+01:00)

LilacSat-2 - Visible Passes

Search period start: 13 November 2019 00:00
Search period end: 23 November 2019 00:00
Orbit: 512 x 536 km, 97.5° (Epoch: 13 November)

Date Brightness Start Highest point End Pass type
(mag) Time Alt. Az. Time Alt. Az. Time Alt. Az.
13 Nov ? 05:48:32 10° NE 05:51:03 17° E 05:53:33 10° SE visible
13 Nov ? 18:02:48 10° S 18:06:31 69° W 18:10:16 10° NNW visible
14 Nov ? 05:37:15 10° ENE 05:38:46 12° E 05:40:18 10° ESE visible
15 Nov ? 06:57:17 10° N 07:01:05 66° WNW 07:04:52 10° SSW visible
16 Nov ? 06:45:05 10° NNE 06:48:55 86° ESE 06:52:44 10° SSW visible
16 Nov ? 19:02:34 10° WSW 19:04:27 13° W 19:06:20 10° WNW visible
17 Nov ? 06:32:56 10° NNE 06:36:44 60° E 06:40:30 10° S visible
17 Nov ? 18:49:29 10° SW 18:52:09 19° W 18:54:51 10° NW visible
18 Nov ? 06:20:53 10° NNE 06:24:31 41° E 06:28:09 10° S visible
18 Nov ? 18:36:45 10° SSW 18:39:54 26° W 18:43:04 10° NW visible
19 Nov ? 06:08:54 10° NE 06:12:16 29° E 06:15:40 10° SSE visible
19 Nov ? 18:24:11 10° SSW 18:27:39 36° W 18:31:08 10° NNW visible
20 Nov ? 05:57:02 10° NE 06:00:01 21° E 06:03:00 10° SE visible
20 Nov ? 18:11:47 10° S 18:15:25 52° W 18:19:07 10° NNW visible
21 Nov ? 05:45:24 10° NE 05:47:45 16° E 05:50:06 10° SE visible
21 Nov ? 17:59:29 10° S 18:03:13 76° WSW 18:06:59 10° NNW visible
22 Nov ? 05:34:17 10° ENE 05:35:27 11° E 05:36:37 10° ESE visible
22 Nov ? 07:06:14 10° N 07:09:57 50° WNW 07:13:41 10° SSW visible
